Starlink 31196

operational
NORAD ID: 58868 Int'l Des: 2024-019 Owner: SPXS Country: US Constellation: starlink
LEOCIRCULAR

Über Starlink 31196

Beschreibung wird geladen...

Live-Position

3D-Globus wird geladen...

Nächste Überflüge

Höhenverlauf

Altitude vs Time

uPlot chart will show altitude changes over time

Zweizeiliger Elementsatz

1 58868U 24019R 25306.15454409 .00002634 00000-0 10516-3 0 9990
2 58868 42.9970 249.5082 0000355 308.4809 51.6011 15.27595534 99551
Epoch: 2. Nov. 2025 • Age: 40 hours

Aktueller Status

Höhe 495.1 km
Geschwindigkeit 7.62 km/s
Subsatellitenpunkt -40.31°S, 140.97°E
Startdatum 29. Jan. 2024
Alter 1.7 years
Typ internet

Technische Details

Klassifizierung Payload
Masse 730.00 kg
Trockenmasse 700.00 kg
Gesamtmasse 730.00 kg
Länge 0.30 m
Durchmesser 4.10 m
Spannweite 29.00 m
Form Box + pan
Hersteller SPXS
Bus-Typ Starlink V2M
Phasenstatus In Orbit
Besitzer/Staat SPXS/US

Große Konstellationen

Loading constellations...